Location: Berg
(47.2344°N, 9.5296°E)
Time: 13:19:34
(UTC+00:00)

Cosmos 44 - Pass Details

Date: 13 May 2021
Orbit: 571 x 791 km, 65.1° (Epoch: 13 June)

Event Time Altitude Azimuth Distance (km) Brightness Sun altitude
Rises 22:57:44 0° 310° (NW) 3,284 7.4 -24.0°
Reaches altitude 10° 23:01:04 10° 289° (WNW) 2,330 6.3 -24.0°
Enters shadow 23:04:12 16° 254° (WSW) 1,916 5.4 -24.1°
